Preview of NWS' New Version of Forecast
This preview is not operational and should not be used for support decisions.
Latest weather observations around

Hartford, Hartford-Brainard Airport (KHFD)

Using English Units (Switch to International System of Units)
Date/ Time (EDT) Wind (mph) Vis. (mi) Weather Sky Cond. Temp (°F) Rel. Humidity Wind Chill (°F) Heat Index (°F) Pressure Precip. (in)
Air Dwpt 6 hour Altimeter (inHg) Sea level (inHg) 1 hr 3 hr 6 hr
Max Min
Jul 21 22:53 NW 9 10 Clear CLR 84 64     51%   85 29.82 29.81      
Jul 21 21:53 NW 6 10 Clear CLR 85 66     53%   87 29.81 29.8      
Jul 21 20:53 N 6 10 Clear CLR 88 70     55%   93 29.79 29.79      
Jul 21 19:53 NNW 8 10 Clear CLR 91 70     50%   97 29.74 29.74      
Jul 21 18:53 N 9 10 Clear CLR 94 72     49%   102 29.73 29.73      
Jul 21 17:53 WSW 8 10 Partly Cloudy FEW065 SCT080 94 73     51%   103 29.71 29.71      
Jul 21 16:53 W 7 10 Clear CLR 95 71     46%   103 29.71 29.71      
Jul 21 15:53   10 Mostly Clear FEW065 97 70     42%   104 29.71 29.71      
Jul 21 14:53 WSW 11 10 Partly Cloudy SCT065 96 70     43%   103 29.71 29.71      
Jul 21 13:53 W 8 10 Clear CLR 95 70     44%   102 29.72 29.72      
Jul 21 12:53 SSW 6 10 Clear CLR 93 73     52%   102 29.73 29.73      
Jul 21 11:53 SSW 6 10 Clear CLR 88 72     59%   95 29.75 29.75      
Jul 21 10:53 WSW 6 10 Clear CLR 87 73     63%   95 29.76 29.76      
Jul 21 09:53 6 10 Clear CLR 86 73     65%   93 29.77 29.77      
Jul 21 08:53 W 5 10 Mostly Clear FEW070 85 73     68%   92 29.79 29.78      
Jul 21 07:53 S 6 10 Clear CLR 83 73     72%   89 29.77 29.77      
Jul 21 06:53 Calm 10 Clear CLR 80 74     82%   85 29.75 29.75      
Jul 21 05:53 SSE 5 9 Clear CLR 78 74     87%   80 29.73 29.73      
Jul 21 04:53 SSE 3 10 Clear CLR 78 75     90%   80 29.74 29.74      
Jul 21 03:53 Calm 9 Clear CLR 77 74     90%   79 29.74 29.74      
Jul 21 02:53 Calm 10 Clear CLR 80 75     85%   85 29.74 29.73      
Jul 21 01:53 Calm 10 Clear CLR 84 73     70%   90 29.75 29.75      
Jul 21 00:53 WNW 5 10 Clear CLR 85 74     70%   92 29.76 29.75      
Jul 20 23:53 Calm 10 Mostly Clear FEW055 87 74     65%   95 29.74 29.74      
Jul 20 22:53 WSW 7 10 Clear CLR 88 75     66%   98 29.76 29.76      
Jul 20 21:53 Calm 10 Clear CLR 88 76     68%   99 29.77 29.77      
Jul 20 20:53 WSW 5 10 Clear CLR 91 74     57%   101 29.76 29.76      
Jul 20 19:53 W 9 10 Mostly Clear FEW050 93 74     54%   103 29.76 29.75      
Jul 20 18:53 SW 6 10 Mostly Cloudy FEW049 BKN060 BKN070 93 76     58%   106 29.73 29.73      
Jul 20 17:53 S 6 10 Mostly Clear FEW050 93 79     64%   110 29.72 29.72      
Jul 20 16:53 SE 10 10 Partly Cloudy SCT050 93 78     62%   109 29.73 29.73      
Jul 20 15:53 SSE 10 10 Mostly Clear FEW046 92 76     60%   104 29.75 29.75      
Jul 20 15:48 S 9 10 Mostly Clear FEW046 93 77     60%   108 29.75        
Jul 20 15:33 3 10 Thunderstorms FEW048 95 76     54%   108 29.76        
Jul 20 14:53 SSW 8 10 Mostly Clear FEW047 94 76     56%   107 29.76 29.76      
Jul 20 13:53 S 7 10 Partly Cloudy SCT044 93 75     56%   105 29.78 29.78      
Jul 20 12:53 5 10 Clear   92 75     58%   103 29.8 29.8      
Jul 20 11:53 5 10 Mostly Clear FEW043 91 74     57%   101 29.82 29.82      
Jul 20 10:53 N 5 10 Clear CLR 91 75     60%   102 29.82 29.81      
Jul 20 09:53 Calm 10 Clear CLR 88 74     63%   97 29.82 29.82      
Jul 20 08:53 WSW 7 10 Clear CLR 87 74     65%   95 29.84 29.83      
Jul 20 07:53 Calm 10 Clear CLR 83 74     74%   89 29.83 29.83      
Jul 20 06:53 Calm 7 Clear CLR 79 76     90%   83 29.83 29.83      
Jul 20 05:53 Calm 8 Clear CLR 77 75     94%   79 29.81 29.81      
Jul 20 04:53 S 3 8 Clear CLR 78 75     90%   80 29.8 29.8      
Jul 20 03:53 S 5 6 Fog/Mist CLR 78 75     90%   80 29.8 29.8      
Jul 20 02:53 S 3 7 Clear CLR 78 75     90%   80 29.79 29.79      
Jul 20 01:53 S 3 7 Clear CLR 79 75     88%   83 29.79 29.79      
Jul 20 00:53 SE 3 7 Clear CLR 79 75     88%   83 29.8 29.8      
Jul 19 23:53 S 3 8 Clear CLR 79 76     90%   83 29.8 29.8      
Jul 19 22:53 S 7 9 Clear CLR 81 75     82%   87 29.8 29.8      
Jul 19 21:53 S 7 10 Clear CLR 81 75     82%   87 29.81 29.81      
Jul 19 20:53 S 6 10 Clear CLR 83 75     77%   90 29.79 29.79      
Jul 19 19:53 S 10 10 Clear CLR 85 75     72%   93 29.78 29.78      
Jul 19 18:53 S 11 10 Clear CLR 87 75     68%   97 29.79 29.79      
Jul 19 17:53 S 8 10 Mostly Cloudy BKN041 88 76     68%   99 29.79 29.79      
Jul 19 16:53 S 11 10 Partly Cloudy SCT060 89 76     65%   100 29.8 29.8      
Jul 19 15:53 SSW 10 10 Mostly Clear FEW036 88 74     63%   97 29.81 29.81      
Jul 19 14:53 S 13 10 Clear CLR 88 74     63%   97 29.81 29.81      
Jul 19 13:53 S 9 10 Clear CLR 86 73     65%   93 29.83 29.83      
Jul 19 12:53 S 7 10 Clear CLR 84 72     67%   90 29.86 29.85      
Jul 19 11:53 3 10 Partly Cloudy SCT020 80 70     71%   83 29.88 29.88      
Jul 19 10:53 7 10 Partly Cloudy SCT019 79 68     69%   80 29.89 29.89      
Jul 19 10:00 SSW 7 10 Partly Cloudy SCT019 77 67     71%   78 29.89        
Jul 19 09:53 WSW 7 10 Mostly Cloudy BKN019 77 67     71%   78 29.89 29.89      
Jul 19 08:53 Calm 10 Mostly Cloudy BKN019 74 63     69%   74 29.9 29.9      
Jul 19 08:37 Calm 10 Mostly Cloudy BKN019 73 64     73%   73 29.9        
Jul 19 08:25 Calm 10 Mostly Clear FEW019 73 64     73%   73 29.9        
Jul 19 07:53 ESE 3 10 Mostly Cloudy BKN018 71 63     76%   71 29.9 29.9      
Jul 19 07:46 Calm 10 Partly Cloudy SCT016 71 62     73%   71 29.9        
Jul 19 06:53 Calm 10 Cloudy OVC016 71 62     73%   71 29.9 29.9      
Jul 19 05:53 Calm 10 Cloudy OVC017 70 62     76%     29.9 29.9      
Jul 19 04:53 NNE 3 10 Cloudy OVC028 70 62     76%     29.89 29.89      
Jul 19 03:53 NNW 5 10 Cloudy SCT018 OVC028 70 61     73%     29.89 29.89      
Jul 19 03:34 Calm 10 Cloudy FEW018 OVC028 70 61     73%     29.89        
Jul 19 03:05 Calm 10 Cloudy FEW019 OVC030 70 62     76%     29.89        
Jul 19 02:53 ENE 3 10 Cloudy BKN019 OVC029 70 62     76%     29.89 29.89      
Jul 19 01:53 N 5 10 Cloudy OVC017 70 63     78%     29.9 29.9      
Jul 19 00:53 NNE 5 10 Cloudy OVC017 71 62     73%   71 29.91 29.91      
Jul 18 23:53 Calm 10 Cloudy OVC020 71 62     73%   71 29.92 29.92      
Jul 18 22:53 NNE 6 10 Cloudy OVC020 71 62     73%   71 29.91 29.91      
Jul 18 21:53 ENE 3 10 Cloudy OVC023 71 62     73%   71 29.91 29.91      
Jul 18 20:53 NNE 11 10 Cloudy BKN022 OVC037 71 63     76%   71 29.91 29.91      
Jul 18 20:43 N 9 10 Cloudy BKN022 OVC037 71 63     76%   71 29.91        
Jul 18 20:36 NNE 9 10 Cloudy SCT024 OVC037 72 63     73%   72 29.91        
Jul 18 19:53 NNE 8 10 Cloudy BKN024 OVC040 73 64     73%   73 29.92 29.91      
Jul 18 19:49 NNE 7 10 Cloudy BKN026 OVC040 73 63     69%   74 29.92        
Jul 18 19:42 ENE 7 10 Cloudy SCT026 OVC040 73 63     71%   73 29.91        
Jul 18 18:53 NE 7 10 Cloudy OVC023 74 65     74%   74 29.92 29.92      
Jul 18 17:53 NNE 8 10 Cloudy OVC023 75 65     71%   76 29.92 29.91      
Jul 18 17:08 ENE 3 10 Cloudy BKN025 OVC032 75 66     74%   76 29.91        
Jul 18 16:53 E 5 10 Cloudy OVC032 75 66     74%   76 29.91 29.91      
Jul 18 16:28 5 10 Cloudy SCT022 OVC034 75 66     74%   76 29.91        
Jul 18 15:53 ESE 6 10 Cloudy OVC021 74 66     76%   75 29.91 29.91      
Jul 18 14:53 NNE 9 10 Cloudy OVC022 74 65     74%   74 29.93 29.93      
Jul 18 13:53 7 10 Cloudy OVC020 76 67     74%   77 29.93 29.93      
Jul 18 12:59 ENE 7 10 Cloudy FEW012 BKN017 OVC027 75 67     76%   76 29.94        
Jul 18 12:53 ENE 8 10 Cloudy FEW012 OVC017 76 67     74%   77 29.94 29.93      
Jul 18 11:53 ENE 10 10 Cloudy BKN014 OVC026 75 68     79%   76 29.94 29.94      
Jul 18 10:58 NE 9 10 Cloudy BKN016 OVC026 76 70     82%   77 29.92        
Jul 18 10:53 ENE 7 10 Cloudy BKN012 OVC018 76 70     82%   77 29.92 29.92      
Jul 18 10:37 NE 11 10 Cloudy BKN012 OVC018 77 71     82%   78 29.92        
Jul 18 10:08 NNE 10 10 Cloudy BKN009 OVC018 78 72     82%   79 29.92        
Jul 18 09:53 N 9 10 Cloudy SCT009 BKN027 OVC100 78 73     85%   80 29.92 29.92      
Jul 18 09:17 N 8 10 Cloudy BKN010 BKN023 OVC095 78 73     85%   80 29.93        
Jul 18 08:59 NNE 8 10 Cloudy FEW007 SCT012 OVC023 77 73     88%   79 29.93        
Jul 18 08:53 NNE 9 10 Cloudy BKN010 BKN015 OVC021 76 72     88%   77 29.93 29.93      
Jul 18 08:35 NNE 8 10 Cloudy SCT007 OVC012 76 73     91%   77 29.93        
Jul 18 08:28 NNE 8 10 Cloudy BKN009 BKN014 OVC019 75 72     90%   76 29.93        
Jul 18 08:09 NNE 5 10 Cloudy BKN014 BKN018 OVC036 75 72     90%   76 29.93        
Jul 18 07:53 Calm 5 Fog/Mist SCT008 BKN016 OVC036 75 72     90%   76 29.93 29.93      
Jul 18 07:34 Calm 10 Cloudy SCT015 BKN027 OVC031 74 71     91%   75 29.93        
Jul 18 07:14 Calm 10 Cloudy FEW017 SCT024 OVC031 74 72     94%   75 29.92        
Jul 18 07:00 Calm 10 Cloudy BKN016 BKN022 OVC031 74 71     91%   75 29.92        
Jul 18 06:53 Calm 10 Cloudy BKN014 OVC022 74 71     91%   75 29.92 29.91      
Jul 18 05:53 S 3 10 Mostly Cloudy BKN011 BKN060 BKN090 73 72     96%   75 29.9 29.9      
Jul 18 05:18 SE 3 10 Cloudy BKN009 OVC023 74 72     94%   75 29.91        
Jul 18 05:00 SE 3 9 Cloudy SCT008 OVC023 74 72     94%   75 29.91        
Jul 18 04:53 Calm 10 Cloudy BKN008 OVC022 74 72     94%   75 29.91 29.91      
Jul 18 04:10 SSE 7 10 Cloudy BKN008 OVC012 74 72     94%   75 29.89        
Jul 18 03:53 SSE 3 9 Cloudy FEW006 OVC012 74 72     94%   75 29.88 29.88      
Jul 18 03:42 ESE 3 7 Cloudy FEW004 BKN012 OVC060 74 72     94%   75 29.88        
Jul 18 02:53 Calm 9 Partly Cloudy SCT003 SCT008 74 72     94%   75 29.87 29.86      
Jul 18 02:30 S 7 8 Mostly Cloudy FEW003 BKN008 74 72     94%   75 29.87        
Jul 18 02:17 S 5 10 Mostly Clear FEW008 74 72     94%   75 29.86        
Jul 18 02:06 S 3 10 Mostly Cloudy BKN010 74 72     94%   75 29.86        
Jul 18 01:53 Calm 10 Partly Cloudy SCT012 74 72     94%   75 29.86 29.86     0
Jul 18 01:29 Calm 10 Partly Cloudy SCT012 74 72     94%   75 29.87        
Jul 18 01:01 Calm 9 Cloudy SCT007 OVC013 74 73     97%   76 29.89        
Jul 18 00:53 Calm 10 Cloudy BKN007 OVC013 75 73     94%   77 29.9 29.9      
Jul 18 00:28 Calm 10 Cloudy BKN008 BKN100 OVC120 75 72     90%   76 29.91        
Jul 18 00:12 Calm 9 Mostly Cloudy FEW007 SCT090 BKN110 74 73     97%   76 29.91        
Jul 17 23:53 ESE 6 9 Clear CLR 74 72     94%   75 29.9 29.9 0    
Jul 17 22:53 SSE 6 6 Light Rain and Fog/Mist FEW008 SCT041 BKN050 75 73     94%   77 29.92 29.91 0 0  
Jul 17 22:50 SSE 6 5 Light Rain and Fog/Mist FEW008 BKN035 BKN050 75 73     94%   77 29.92   0    
Jul 17 22:35 S 9 3 Rain and Fog/Mist SCT011 BKN035 OVC050 76 74     94%   78 29.94   0    
Jul 17 22:25 S 8 1.5 Heavy Rain and Fog/Mist SCT005 BKN019 OVC030 76 74     94%   78 29.94   0    
Jul 17 22:22 SSW 8 2.5 Rain and Fog/Mist SCT005 BKN011 OVC030 76 74     94%   78 29.95   0    
Jul 17 21:53 Calm 6 Light Rain and Fog/Mist BKN005 OVC120 77 74     90%   79 29.92 29.92 0    
Jul 17 21:45 Calm 8 Light Rain SCT007 BKN120 76 74     94%   78 29.92   0    
Jul 17 20:53 Calm 6 Fog/Mist FEW075 76 74     94%   78 29.87 29.87 0    
Jul 17 19:53 S 5 10 Mostly Cloudy SCT075 BKN130 75 73     94%   77 29.89 29.89 0   1
Jul 17 18:53 NE 3 10 Clear CLR 76 73     91%   77 29.88 29.88 1    
Jul 17 18:23 WSW 5 10 Mostly Cloudy FEW011 BKN060 77 72     84%   78 29.88   1    
Jul 17 18:10 3 8 Light Rain BKN011 BKN016 OVC060 75 72     90%   76 29.88   1    
Jul 17 18:00 WSW 9 0.25 Thunderstorms and Heavy Rain BKN013 OVC041 74 71     91%   75 29.89   0    
Jul 17 17:53 NW 10 0.25 Thunderstorms and Heavy Rain SCT014 BKN041 OVC050 74 70     87%   75 29.89 29.89 1    
Jul 17 17:47   0.75 Thunderstorms and Heavy Rain FEW014 BKN041 OVC070 75 72     89%   77 29.89   0    
Jul 17 17:45 NW 14 3 Thunderstorms and Heavy Rain BKN041 BKN070 OVC085 76 72     88%   77 29.89   0    
Jul 17 17:42 NW 13 3 Rain BKN041 BKN055 OVC090 77 72     84%   78 29.88   0    
Jul 17 17:33 NW 13 1.75 Rain SCT041 SCT050 BKN070 77 72     84%   78 29.86   0    
Jul 17 17:16 5 10 Thunderstorms FEW039 SCT075 79 71     77%   82 29.83   0    
Jul 17 17:04 W 9 2 Thunderstorms and Heavy Rain FEW039 SCT050 BKN085 80 71     74%   84 29.84   0    
Jul 17 17:02 WSW 14 2.5 Thunderstorms and Rain FEW039 SCT050 BKN080 81 70     69%   84 29.85   0    
Jul 17 16:53 SW 11 10 Mostly Clear FEW035 FEW045 86 67     53%   89 29.84 29.84 0 0  
Jul 17 15:53 SSE 8 10 Mostly Cloudy FEW050 SCT060 BKN075 89 75     63%   99 29.85 29.85 0    
Jul 17 14:53 WSW 9 10 Mostly Cloudy SCT045 BKN250 93 69     46%   98 29.85 29.85      
Jul 17 13:53 W 8 10 Partly Cloudy SCT080 92 68     46%   96 29.87 29.87      
Jul 17 12:53 SSW 13 10 Mostly Cloudy SCT032 SCT050 BKN110 91 70     50%   97 29.89 29.89      
Jul 17 11:53 SSW 8 10 Clear CLR 89 71     55%   95 29.9 29.9      
Jul 17 10:53 S 6 10 Clear CLR 86 72     63%   92 29.92 29.92      
Jul 17 09:53 S 5 10 Mostly Cloudy BKN110 82 68     63%   85 29.95 29.94      
Jul 17 08:53 S 6 10 Cloudy OVC110 80 71     74%   84 29.95 29.94      
Jul 17 07:53 S 5 10 Cloudy OVC100 77 71     82%   78 29.95 29.94      
Jul 17 06:53 S 6 10 Cloudy FEW060 OVC100 77 70     79%   78 29.94 29.94      
Jul 17 05:53 S 6 10 Mostly Clear FEW110 76 70     82%   77 29.95 29.94      
Jul 17 04:53 SSE 5 10 Partly Cloudy SCT120 76 69     79%   77 29.95 29.94      
Jul 17 03:53 SSE 5 10 Clear CLR 75 69     82%   76 29.94 29.93      
Jul 17 02:53 S 5 10 Clear CLR 76 69     79%   77 29.95 29.94      
Jul 17 01:53 SSE 3 10 Clear   77 68     74%   78 29.96 29.96      
Jul 17 00:53 S 7 10 Clear CLR 77 68     74%   78 29.96 29.96      
Jul 16 23:53 SSE 9 10 Clear CLR 78 67     69%   79 29.97 29.97      
Jul 16 22:53 S 6 10 Clear CLR 79 67     67%   80 29.97 29.97      
Jul 16 21:53 S 8 10 Clear CLR 81 66     61%   83 29.99 29.98      
Jul 16 18:53 SW 6 10 Clear CLR 88 65     47%   90 29.95 29.95      
Jul 16 17:53 SSE 10 10 Partly Cloudy SCT065 88 66     48%   90 29.95 29.95      
Jul 16 16:53 W 3 10 Clear CLR 90 63     41%   91 29.96 29.96      
Jul 16 15:53 SSW 9 10 Clear CLR 90 62     40%   90 29.98 29.98      
Jul 16 14:53 S 10 10 Clear CLR 89 62     41%   90 29.99 29.98      
Jul 16 13:53 WSW 9 10 Clear CLR 88 61     40%   88 30.01 30.01      
Jul 16 12:53 6 10 Clear CLR 86 60     42%   86 30.02 30.02      
Jul 16 11:53 SSW 7 10 Clear CLR 84 60     44%   84 30.04 30.04      
Jul 16 10:53 5 9 Clear CLR 81 63     54%   82 30.05 30.05      
Jul 16 09:53 ESE 5 10 Clear CLR 76 62     62%   76 30.07 30.07      
Jul 16 08:53 Calm 10 Clear CLR 72 61     68%   72 30.08 30.08      
Jul 16 07:53 Calm 10 Clear CLR 68 62     81%     30.09 30.08      
Jul 16 06:53 Calm 10 Clear CLR 65 61     87%     30.08 30.08      
Jul 16 05:53 Calm 10 Clear CLR 62 59     90%     30.06 30.06      
Jul 16 04:53 Calm 10 Clear CLR 63 60     90%     30.05 30.05      
Jul 16 03:53 Calm 10 Clear CLR 64 61     90%     30.04 30.04      
Jul 16 02:53 Calm 10 Clear CLR 65 60     84%     30.05 30.04      
Jul 16 01:53 Calm 10 Clear CLR 66 61     84%     30.05 30.05      
Jul 16 00:53 Calm 10 Clear   67 62     84%     30.06 30.05      
Jul 15 23:53 Calm 10 Clear CLR 68 61     78%     30.04 30.04      
Jul 15 22:53 Calm 10 Clear CLR 71 60     68%   71 30.03 30.03      
Jul 15 21:53 Calm 10 Clear CLR 73 57     57%   73 30.02 30.02      
Jul 15 20:53 N 5 10 Clear CLR 77 56     48%   77 30.01 30.01      
Jul 15 19:53 N 8 10 Clear CLR 80 54     41%   80 30 30      
Jul 15 18:53 N 11 10 Clear CLR 83 51     33%   81 29.99 29.99      
Jul 15 17:53 NW 11 10 Clear CLR 85 51     31%   83 29.98 29.98      
Jul 15 16:53 NNW 11 10 Clear CLR 85 50     30%   83 29.98 29.98      
Jul 15 15:53 NW 7 10 Clear CLR 85 52     32%   83 29.98 29.98      
Jul 15 14:53 NW 11 10 Clear CLR 85 52     32%   83 29.99 29.99      
Jul 15 13:53 WSW 8 10 Clear CLR 83 54     37%   82 30 30      
Jul 15 12:53 NW 9 10 Clear CLR 82 56     41%   82 30.03 30.02      
Jul 15 11:53 SSW 9 10 Clear CLR 80 59     49%   81 30.03 30.03      
Jul 15 10:53 5 10 Clear CLR 78 57     48%   78 30.05 30.04      
Jul 15 09:53 Calm 10 Clear CLR 77 57     50%   77 30.05 30.05      
Jul 15 08:53 Calm 10 Clear CLR 74 59     60%   74 30.05 30.05      
Jul 15 07:53 S 3 10 Clear CLR 71 60     68%   71 30.05 30.05      
Jul 15 06:53 SSE 3 10 Clear CLR 67 59     76%     30.04 30.04      
Jul 15 06:23 SW 3 10 Mostly Clear FEW002 67 58     73%     30.04        
Jul 15 05:53 SSW 3 10 Clear CLR 66 59     78%     30.03 30.03      
Jul 15 04:53 Calm 9 Clear CLR 66 58     75%     30.02 30.01      
Jul 15 03:53 Calm 10 Clear CLR 70 58     66%     30 30      
Jul 15 02:53 NW 5 10 Clear CLR 72 57     59%   72 30 30      
Jul 15 01:53 NW 7 10 Clear CLR 72 58     61%   72 30 29.99      
Jul 15 00:53 NW 6 10 Clear CLR 74 58     57%   74 29.98 29.98      
Jul 14 23:53 NNW 10 10 Clear CLR 75 58     55%   75 29.97 29.97      
Jul 14 22:53 NW 8 10 Clear CLR 77 57     50%   77 29.97 29.96      
Jul 14 21:53 NNW 10 10 Clear CLR 79 58     49%   79 29.96 29.96      
Jul 14 20:53 N 13 10 Clear CLR 81 58     45%   81 29.93 29.93      
Jul 14 19:53 NW 9 10 Clear CLR 83 58     43%   83 29.9 29.9      
Jul 14 18:53 NNW 13 10 Clear CLR 85 58     40%   84 29.88 29.88      
Jul 14 17:53 NW 11 10 Clear CLR 87 57     36%   86 29.87 29.87      
Jul 14 16:53 WNW 13 10 Clear CLR 89 57     34%   88 29.86 29.86      
Jul 14 15:53 NW 14 10 Clear CLR 90 57     33%   89 29.86 29.86      
Jul 14 14:53 NW 10 10 Clear CLR 89 61     39%   89 29.86 29.85      
Jul 14 13:53 NNW 11 10 Mostly Cloudy BKN070 89 60     38%   89 29.86 29.86      
Jul 14 12:53 NW 13 10 Clear CLR 89 61     39%   89 29.88 29.87      
Jul 14 11:53 NW 13 10 Partly Cloudy SCT060 86 62     45%   87 29.88 29.88      
Jul 14 10:53 5 10 Mostly Clear FEW046 86 66     51%   88 29.88 29.88      
Jul 14 09:53 Calm 10 Clear CLR 82 65     56%   84 29.88 29.88      
Jul 14 08:53 Calm 10 Clear CLR 80 65     60%   82 29.89 29.89      
Jul 14 07:53 SSW 3 10 Clear CLR 77 66     69%   78 29.89 29.89      
Jul 14 06:53 Calm 10 Mostly Clear FEW110 73 67     81%   74 29.89 29.88      
Jul 14 05:53 S 5 10 Clear CLR 70 67     90%     29.87 29.87      
Jul 14 04:53 Calm 9 Clear CLR 71 67     87%   72 29.87 29.87      
Jul 14 03:53 S 3 10 Clear CLR 71 67     87%   72 29.86 29.86      
Jul 14 02:53 S 6 10 Clear CLR 72 67     84%   73 29.86 29.85      
Jul 14 01:53 S 5 10 Clear CLR 72 67     84%   73 29.86 29.86      
Jul 14 00:53 SSE 3 10 Clear CLR 73 66     79%   74 29.87 29.87      
Jul 13 23:53 SSE 6 10 Clear CLR 74 66     76%   75 29.88 29.88      
Jul 13 22:53 SSE 6 10 Clear CLR 75 66     74%   76 29.89 29.88      
Jul 13 21:53 S 5 10 Clear CLR 77 66     69%   78 29.88 29.88      
Jul 13 20:53 SSW 5 10 Clear CLR 79 65     62%   80 29.87 29.87      
Jul 13 19:53 WSW 5 10 Clear CLR 84 63     49%   85 29.86 29.86      
Jul 13 18:53 WSW 9 10 Clear CLR 86 61     43%   86 29.85 29.85      
Jul 13 17:53 W 10 10 Clear CLR 87 61     42%   87 29.85 29.85      
Jul 13 16:53 W 8 10 Clear CLR 87 62     43%   88 29.87 29.86      
Jul 13 15:53 WSW 7 10 Clear CLR 87 61     42%   87 29.87 29.86      
Jul 13 14:53 S 9 10 Partly Cloudy SCT055 85 62     46%   86 29.87 29.87      
Jul 13 13:53 WSW 10 10 Mostly Clear FEW050 84 61     46%   84 29.89 29.89      
Jul 13 12:53 WSW 7 10 Partly Cloudy SCT049 83 61     48%   83 29.9 29.9      
Jul 13 11:53 5 10 Mostly Clear FEW044 82 62     51%   83 29.91 29.91      
Jul 13 10:53 WNW 6 10 Clear CLR 80 62     54%   81 29.92 29.91      
Jul 13 09:53 NNW 8 10 Clear CLR 78 61     56%   78 29.92 29.91      
Jul 13 08:53 6 10 Clear CLR 76 60     58%   76 29.92 29.92      
Jul 13 07:53 NW 6 10 Clear CLR 74 60     62%   74 29.91 29.91      
Jul 13 06:53 Calm 10 Clear CLR 72 60     66%   72 29.89 29.89      
Jul 13 05:53 NNW 6 10 Clear CLR 71 60     68%   71 29.87 29.87      
Jul 13 03:53 NNW 5 10 Mostly Cloudy BKN070 72 61     68%   72 29.84 29.84      
Jul 13 02:53 N 5 10 Partly Cloudy SCT070 73 62     68%   73 29.83 29.83      
Jul 13 01:53 6 10 Cloudy OVC070 73 63     71%   73 29.82 29.82      
Jul 13 00:53 NNW 7 10 Mostly Cloudy FEW060 BKN070 74 63     69%   74 29.81 29.81      
Jul 12 23:53 NW 7 10 Cloudy OVC055 75 64     69%   75 29.81 29.81      
Jul 12 22:53 NNW 6 10 Cloudy OVC055 75 63     66%   75 29.8 29.8      
Jul 12 21:53 WNW 5 10 Cloudy FEW038 OVC050 76 62     62%   76 29.78 29.78      
Jul 12 20:53 WNW 9 10 Clear CLR 77 61     58%   77 29.76 29.76      
Jul 12 19:53 NNW 13 10 Mostly Clear FEW050 79 59     50%   79 29.75 29.75      
Jul 12 18:53 NW 13 10 Partly Cloudy SCT055 83 60     46%   83 29.73 29.72      
Jul 12 17:53 WNW 14 10 Mostly Cloudy BKN055 84 62     48%   85 29.7 29.7      
Jul 12 16:53 WNW 11 10 Mostly Cloudy BKN050 BKN065 87 63     45%   88 29.68 29.68      
Jul 12 15:53 NW 10 10 Partly Cloudy SCT060 86 65     50%   88 29.67 29.67      
Jul 12 14:53 WNW 11 10 Partly Cloudy SCT049 88 65     47%   90 29.67 29.67      
Jul 12 13:53 WNW 9 10 Partly Cloudy FEW046 SCT070 SCT090 87 67     51%   90 29.68 29.67      
Jul 12 12:53 NW 7 10 Mostly Cloudy FEW039 SCT049 BKN070 86 68     55%   89 29.67 29.67      
Jul 12 11:53 3 10 Mostly Cloudy SCT036 BKN046 86 69     57%   90 29.69 29.68      
Jul 12 10:53 N 8 10 Mostly Cloudy BKN033 BKN040 83 69     63%   87 29.69 29.69      
Jul 12 09:53 Calm 10 Mostly Cloudy BKN017 81 71     72%   85 29.69 29.68      
Jul 12 08:53 NNW 7 10 Mostly Cloudy SCT012 BKN019 78 71     79%   79 29.69 29.69      
Jul 12 07:53 NW 3 10 Mostly Cloudy BKN008 BKN014 75 71     88%   76 29.69 29.69 0   1
Jul 12 06:53 Calm 10 Light Rain BKN006 OVC012 73 71     94%   74 29.69 29.69 0    
Jul 12 05:53 S 5 10 Cloudy OVC009 73 71     94%   74 29.68 29.67      
Jul 12 04:53 S 5 5 Fog/Mist OVC012 73 71     94%   74 29.68 29.67   1  
Jul 12 03:53 Calm 10 Cloudy SCT005 OVC014 73 71     94%   74 29.69 29.69 0    
Jul 12 03:42 Calm 10 Cloudy BKN005 BKN014 OVC029 73 71     94%   74 29.69   0    
Jul 12 03:16 Calm 8 Light Rain FEW004 BKN021 OVC032 73 72     96%   75 29.71   0    
Jul 12 03:07 E 5 3 Light Rain and Fog/Mist FEW004 BKN012 OVC031 73 71     94%   74 29.7   0    
Jul 12 03:03 E 5 1.75 Heavy Rain and Fog/Mist FEW004 BKN014 OVC032 73 71     94%   74 29.71   0    
Jul 12 02:53 ESE 6 0.75 Heavy Rain and Fog/Mist FEW006 OVC014 73 71     94%   74 29.71 29.71 1    
Jul 12 02:47 E 5 0.75 Heavy Rain and Fog/Mist FEW008 BKN018 OVC037 73 72     94%   75 29.72   1    
Jul 12 02:43 E 5 1.25 Heavy Rain and Fog/Mist FEW010 BKN022 OVC050 73 71     94%   74 29.72   0    
Jul 12 02:30 Calm 1.5 Heavy Rain and Fog/Mist FEW010 BKN032 OVC100 73 71     94%   74 29.72   0    
Jul 12 01:53 Calm 10 Cloudy SCT065 BKN080 OVC100 73 71     94%   74 29.74 29.74 0   0
Jul 12 01:12 Calm 10 Light Rain FEW009 BKN050 BKN090 73 71     94%   74 29.75   0    
Jul 12 01:02 Calm 10 Light Rain FEW011 SCT029 BKN050 73 71     94%   74 29.77   0    
Jul 12 00:53 SE 3 10 Light Rain BKN013 BKN031 BKN090 73 71     94%   74 29.77 29.77 0    
Jul 12 00:18 Calm 5 Light Rain and Fog/Mist BKN014 BKN028 OVC100 73 71     94%   74 29.78   0    
Jul 11 23:53 SSE 5 10 Light Rain BKN017 BKN050 OVC100 73 70     90%   74 29.79 29.79 0    
Jul 11 22:53 SSE 7 10 Light Rain BKN016 BKN026 OVC047 73 70     90%   74 29.81 29.8 0 0  
Jul 11 22:06 SSE 8 10 Light Rain BKN017 BKN039 OVC050 74 69     85%   75 29.83   0    
Jul 11 21:53 SSE 7 10 Cloudy FEW018 BKN039 OVC050 74 69     85%   75 29.83 29.83 0    
Jul 11 21:33 SSE 8 10 Light Rain FEW017 SCT023 OVC055 74 69     85%   75 29.83   0    
Jul 11 20:53 S 8 10 Cloudy OVC018 75 69     82%   76 29.84 29.83 0    
Jul 11 19:53 S 7 10 Light Rain BKN022 BKN055 BKN065 75 69     82%   76 29.85 29.84 0   0
Jul 11 18:53 S 13 10 Partly Cloudy FEW028 SCT070 SCT110 77 66     69%   78 29.85 29.85 0    
Jul 11 17:53 S 13 10 Clear CLR 79 64     60%   79 29.84 29.83      
Jul 11 16:53 SSE 15 10 Clear CLR 81 62     53%   82 29.85 29.85      
Jul 11 15:53 SSE 15 10 Mostly Clear FEW045 83 63     51%   84 29.86 29.86      
Jul 11 14:53 S 13 10 Mostly Clear FEW044 FEW050 83 66     57%   85 29.88 29.88      
Jul 11 13:53 S 10 10 Mostly Cloudy BKN042 84 68     59%   87 29.9 29.9      
Jul 11 12:53 S 10 10 Mostly Cloudy BKN043 84 67     57%   87 29.91 29.91      
Jul 11 11:53 S 11 10 Partly Cloudy SCT030 SCT050 85 67     55%   88 29.92 29.92      
Jul 11 10:53 7 10 Partly Cloudy FEW010 SCT050 SCT065 82 68     63%   85 29.93 29.93      
Jul 11 09:53 S 6 10 Mostly Cloudy SCT050 BKN070 79 69     72%   80 29.95 29.95      
Jul 11 08:53 SSE 5 9 Mostly Cloudy SCT047 BKN060 BKN080 76 69     79%   77 29.97 29.96      
Jul 11 07:53 S 3 9 Cloudy FEW070 OVC110 74 69     85%   75 29.97 29.97      
Jul 11 06:53 S 3 8 Cloudy SCT075 OVC120 73 69     87%   74 29.97 29.97      
Jul 11 05:53 Calm 6 Fog/Mist CLR 70 67     90%     29.96 29.96      
Jul 11 04:53 Calm 8 Clear CLR 71 68     90%   72 29.96 29.96      
Jul 11 02:53 S 3 9 Clear CLR 72 68     87%   73 29.96 29.96      
Jul 11 01:53 S 3 9 Clear CLR 72 68     87%   73 29.96 29.96      
Jul 11 00:53 Calm 10 Clear CLR 73 68     84%   74 29.97 29.97      
Jul 10 23:53 Calm 10 Clear CLR 74 67     79%   75 29.97 29.96      
Jul 10 22:53 SSE 3 10 Clear CLR 75 67     76%   76 29.98 29.98      
Jul 10 21:53 S 5 10 Mostly Cloudy BKN070 77 65     66%   78 29.98 29.98      
Jul 10 20:53 S 8 10 Clear CLR 79 65     62%   80 29.97 29.97      
Jul 10 17:53 W 5 10 Clear CLR 89 56     33%   87 29.96 29.96      
Jul 10 16:53 SW 8 10 Clear CLR 89 53     29%   87 29.97 29.96      
Jul 10 15:53 ENE 6 10 Mostly Clear FEW070 89 61     39%   89 29.97 29.97      
Jul 10 14:53 S 6 10 Clear CLR 87 60     40%   87 29.99 29.98      
Jul 10 13:53 S 7 10 Clear CLR 87 58     37%   86 29.99 29.99      
Jul 10 12:53 6 10 Clear   86 59     40%   85 30 30      
Jul 10 11:53 Calm 10 Clear CLR 83 61     48%   83 30.03 30.02      
Jul 10 10:53 ENE 3 10 Clear CLR 81 61     51%   82 30.03 30.03      
Jul 10 09:53 E 3 10 Clear CLR 76 61     60%   76 30.04 30.04      
Jul 10 08:53 Calm 10 Mostly Clear FEW002 73 61     66%   73 30.05 30.05      
Jul 10 07:53 Calm 10 Clear CLR 69 61     75%     30.06 30.06      
Jul 10 05:53 Calm 10 Clear CLR 63 60     90%     30.03 30.03      
Jul 10 04:53 Calm 10 Clear CLR 63 61     93%     30.03 30.03      
Jul 10 03:53 Calm 10 Clear CLR 64 60     87%     30.02 30.02      
Jul 10 02:53 Calm 10 Clear CLR 65 61     87%     30.02 30.01      
Jul 10 01:53 Calm 10 Clear CLR 66 62     87%     30.03 30.03      
Jul 10 00:53 Calm 10 Clear CLR 67 62     84%     30.03 30.03      
Jul 09 23:53 Calm 10 Clear CLR 69 61     75%     30.03 30.03      
Jul 09 22:53 Calm 10 Clear CLR 71 60     68%   71 30.03 30.03      
Jul 09 21:53 Calm 10 Clear CLR 77 55     47%   77 30.02 30.02      
Jul 09 20:53 W 6 10 Clear CLR 82 53     37%   81 30 30      
Jul 09 19:53 WNW 6 10 Clear CLR 84 52     33%   82 29.99 29.99      
Jul 09 18:53 7 10 Clear CLR 86 55     35%   84 29.98 29.98      
Jul 09 17:53 6 10 Clear CLR 88 54     31%   86 29.98 29.98      
Jul 09 16:53 SSE 8 10 Partly Cloudy SCT080 87 55     34%   85 29.97 29.97      
Jul 09 15:53 6 10 Clear CLR 87 54     32%   85 29.99 29.99      
Jul 09 14:53 E 7 10 Clear CLR 86 54     33%   84 29.99 29.99      
Jul 09 13:53 ENE 3 10 Clear CLR 85 54     35%   83 30 30      
May 15 04:53 S 5 4 Clear   59 58     96%     29.86 29.85      
May 14 13:53 SSE 8 10 Clear CLR 67 55     66%     29.96 29.96      
May 14 04:31 S 3 10 Cloudy BKN012 OVC028 51 48     89%     30.01        
May 12 08:53 N 3 10 Cloudy OVC055 53 37     54%     30.18 30.18      
May 12 01:53 Calm 10 Mostly Clear FEW120 55 35     47%     30.14 30.14      
May 12 00:53 NNE 5 10 Clear CLR 55 37     51%     30.15 30.14      
May 11 21:53 N 5 10 Clear CLR 62 29     28%     30.1 30.1      
May 11 15:53 N 8 10 Clear CLR 69 36     30%     29.99 29.99      
May 11 11:53 NW 13 10 Mostly Clear FEW040 64 38     38%     29.99 29.98      
Jun 11 10:53 5 10 Clear CLR 84 63     49%   85 30.01 30.01      
Jun 10 18:53   10 Clear   79 57     47%   79 29.93 29.93      
Jun 10 12:51 SW 8 10 Mostly Cloudy BKN075 82 55     40%   82 29.95        
Jun 10 08:53 E 3 10 Clear CLR 71 56     59%   71 29.97 29.97      
Jun 09 22:53 S 3 10 Clear CLR 61 55     81%     29.84 29.83      
Jun 08 01:53 Calm 10 Clear CLR 53 50     89%     30.02 30.02      
Jun 07 09:53 NNE 10 10 Cloudy OVC060 59 49     69%     29.99 29.98      
Jun 07 08:53 N 8 10 Cloudy SCT055 BKN070 OVC080 57 50     77%     29.98 29.98      
Jun 06 14:53 N 9 6 Light Rain and Fog/Mist BKN014 OVC019 51 49     92%     29.82 29.82 0    
Notice The following observation data may not be complete
Jun 06 08:11   2.5 Light Rain and Fog/Mist BKN007 OVC014          %         0    
Jun 06 07:49 N 10 2.5 Light Rain and Fog/Mist OVC012 52 48     87%     29.79   0